Flag for Albania Weather past 2 weeks in Tirana, Albania

Now
50 °F

Passing clouds.


Feels Like: 48 °F
Forecast: 42 / 67 °F
Wind: 6 mph from Northwest

Location: Tirana Airport

Current Time: Mar 29, 2015 at 12:09:38 AM

Latest Report: Mar 28, 2015 at 11:20 PM


Visibility: N/A

Pressure: 29.77 "Hg

Humidity: 54%

Dew point: 34 °F

Location of TiranaLocation

Historic Weather in Tirana — Graph

°F

Tirana temperature yesterday

Maximum temperature yesterday: 59 °F (at 9:20 AM)
Minimum temperature yesterday: 50 °F (at 9:20 PM)
Average temperature yesterday: 55 °F

Past Weeks' High & Low Weather Summary

 TemperatureHumidityPressure
High73 °F (Mar 26, 2:20 PM)94% (Mar 23, 7:50 AM)30.42 "Hg (Mar 23, 7:50 AM)
Low28 °F (Mar 21, 5:50 AM)12% (Mar 21, 1:20 PM)29.56 "Hg (Mar 27, 11:20 AM)
Average52 °F63%30.04 "Hg
* Reported Mar 13 10:20 PM — Mar 28 10:50 PM, Tirana, Weather by CustomWeather, © 2015

Note: Actual official high and low records may vary slightly from our data, if they occured in-between our weather recording intervals... More about our weather records

Advertising

Tirana weather history for previous 24 hours

 ConditionsComfort  
Time TempWeatherWind HumidityBarometerVisibility
10:50 PM
Sat, Mar 28
52 °FPassing clouds.9 mph50%29.77 "HgN/A
9:50 PM50 °FPassing clouds.8 mph58%29.77 "HgN/A
9:20 PM50 °FPassing clouds.7 mph58%29.74 "HgN/A
8:50 PM52 °FPassing clouds.9 mph54%29.74 "HgN/A
8:20 PM52 °FPassing clouds.7 mph54%29.74 "HgN/A
7:50 PM54 °FPassing clouds.7 mph51%29.74 "HgN/A
7:20 PM52 °FPassing clouds.10 mph54%29.74 "HgN/A
6:50 PM54 °FPassing clouds.8 mph54%29.71 "HgN/A
6:20 PM54 °FPassing clouds.9 mph51%29.71 "HgN/A
5:50 PM55 °FPartly sunny.8 mph51%29.71 "HgN/A
5:20 PM57 °FPartly sunny.9 mph48%29.68 "HgN/A
4:50 PM55 °FPartly sunny.10 mph55%29.68 "HgN/A
4:20 PM55 °FBroken clouds.13 mph51%29.68 "HgN/A
3:50 PM55 °FBroken clouds.12 mph55%29.68 "HgN/A
3:20 PM55 °FBroken clouds.12 mph55%29.68 "HgN/A
2:50 PM57 °FBroken clouds.10 mph55%29.68 "HgN/A
2:20 PM59 °FBroken clouds.10 mph48%29.68 "HgN/A
1:50 PM59 °FBroken clouds.12 mph48%29.68 "HgN/A
1:20 PM59 °FPartly sunny.10 mph48%29.68 "HgN/A
12:50 PM59 °FPartly sunny.12 mph45%29.68 "HgN/A
12:20 PM57 °FBroken clouds.9 mph51%29.65 "HgN/A
11:50 AM59 °FPartly sunny.9 mph51%29.68 "HgN/A
11:20 AM57 °FPartly sunny.10 mph51%29.68 "HgN/A
10:50 AM57 °FBroken clouds.9 mph51%29.65 "HgN/A
10:20 AM57 °FBroken clouds.8 mph51%29.65 "HgN/A
9:50 AM57 °FBroken clouds.12 mph51%29.65 "HgN/A
9:20 AM59 °FBroken clouds.8 mph59%29.65 "HgN/A
8:50 AM57 °FBroken clouds.5 mph63%29.65 "HgN/A
8:20 AM55 °FBroken clouds.No wind82%29.65 "HgN/A
7:50 AM54 °FBroken clouds.2 mph94%29.65 "HgN/A
7:20 AM52 °FBroken clouds.2 mph94%29.62 "HgN/A
6:50 AM54 °FBroken clouds.2 mph88%29.62 "HgN/A
6:20 AM52 °FBroken clouds.2 mph94%29.62 "HgN/A
5:50 AM52 °FBroken clouds.5 mph94%29.62 "HgN/A
5:20 AM52 °FPartly cloudy.2 mph94%29.62 "HgN/A
4:50 AM52 °FMostly cloudy.2 mph94%29.62 "HgN/A
4:20 AM52 °FPartly cloudy.2 mph94%29.62 "HgN/A
3:50 AM52 °FPartly cloudy.3 mph94%29.62 "HgN/A
3:20 AM54 °FLight rain. Partly cloudy.6 mph94%29.62 "Hg6 mi
2:50 AM54 °FLight rain. Mostly cloudy.7 mph94%29.59 "Hg4 mi
2:20 AM54 °FLight rain. Fog.6 mph94%29.62 "Hg2 mi
1:50 AM54 °FLight rain. Fog.5 mph94%29.62 "Hg1 mi
1:20 AM54 °FLight rain. Fog.5 mph94%29.62 "Hg1 mi
12:50 AM54 °FLight rain. Overcast.3 mph94%29.62 "Hg1 mi
12:20 AM54 °FRain. Mostly cloudy.3 mph94%29.62 "Hg2 mi
Weather by CustomWeather, © 2015

See weather overviewHow to use our weather pages